IRIDIUM 33 DEB, 37565

Orbit data source: Space-Track

IRIDIUM 33 DEB, 37565 is space debris in LEO originally from a launch on Sun, 14 Sep 1997 UTC launched from the Tyuratam Missile And Space Complex (TTMTR). The debris from Iridium 33, an American commercial communications satellite, has been tracked extensively since its accidental collision with the defunct Russian satellite Cosmos 2251 in 2009. This event, occurring at high speed in low Earth orbit (LEO), generated thousands of pieces of space debris, significantly increasing the risk of further collisions. The Iridium 33 debris cloud has impacted space traffic management and orbital debris mitigation strategies, making it a subject of ongoing study in space situational awareness.

Loading next visibility...
Identifier
37565, 1997-051YA
Orbit
LEO
Country
Flag of USUS
Related business
Manufacturer
Unknown
Mission
Spacecraft
Bus & Motor
Unknown
Mass
Unknown
Launch date (UTC)
1997-09-14 (28 years ago)
Launch vehicle
Unknown
Launch site
Tyuratam Missile And Space Complex (TTMTR)
Object type
Payload
Rocket body
Debris
Shape & HBR
Unknown shape, 0.1 m
Radar Cross Section
Small (<0.1 m²)

Expand to show TLE details & history
Last TLE update: 2 days ago

TLE from 2 days ago
0 IRIDIUM 33 DEB
1 37565U 97051YA  25300.97405714  .00003285  00000-0  82149-3 0  9990
2 37565  86.3533  29.4985 0011794 228.1350 131.8850 14.51212024651736
Epoch: 2025-10-27T23:22Z
TLE epoch observation values (Epoch: 2025-10-27T23:22:38.536Z)
Latitude
-0°
Longitude
2.26972°
Altitude
730.364 km
Speed
7.487 km/s
True Right ascension
01h 57m 59s
True Declination
0° 00' 00"
Sunlit
Object was in full shadow at epoch
Visualization orbit readout
Latitude
Unknown
Longitude
Unknown
Altitude
Unknown
Speed
Unknown
Apparent Right ascension
Unknown
Apparent Declination
Unknown
Sunlit
N/A
Visualization observer readout
Local Sidereal Time
01:14:35
Azimuth
Unknown
Elevation
Unknown
Doppler factor
Unknown
Orbital elements
Apogee altitude
727.004 km
Perigee altitude
710.264 km
Semi-major axis
7,096.771 km
Eccentricity
0.00118
Inclination
86.3533°
RAAN
29.4985°
Arg. of periapsis
228.135°
True anomaly
131.98552°
Mean anomaly
131.885°
Eccentric anomaly
131.93527°
Mean motion
3.63038 °/min
Orbital period
99.16 mins
BSTAR
0.00082149
Loading maneuver chart data...
Computing Atmospheric mass density...

Documentation

Showing up to 5 results
|